Main page
METAR-TAF:

METAR-TAF

Airports :

TSTC Waco Airport

Waco, Texas, United States

latitude: 31-38-16N, longitude: 097-04-27W, elevation: 469 ft

Current weather observation

The report was made 29 minutes ago, at 03:55 UTC
Wind 9 mph from the North
Temperature 41°F
Humidity 81%
Pressure 30.65 in. Hg
Visibility: 10 miles
Clear sky

METAR: KCNW 210355Z 35008KT 10SM SKC 05/02 A3065

Time: 21:24 (04:24 UTC)


TAF: missing

Weather observations and forecasts of more than 4000 airports (METAR and TAF reports).

The available stations are represented by yellow and red dots on the map.

Hover mouse over dot to see the name of the station.

Then click to see weather observations and forecasts.

To change the map : click on the green buttons with a black cross to zoom in, on the green button with a dash to zoom out, or on the green arrows for adjacent maps.


METAR-TAF: